TimeCST,TemperatureF,Dew PointF,Humidity,Sea Level PressureIn,VisibilityMPH,Wind Direction,Wind SpeedMPH,Gust SpeedMPH,PrecipitationIn,Events,Conditions,WindDirDegrees,DateUTC
12:54 AM,12.9,-0.9,54,30.41,10.0,NW,8.1,-,N/A,,Clear,320,2013-01-22 06:54:00
1:54 AM,12.9,-2.0,51,30.42,10.0,WNW,9.2,-,N/A,,Clear,300,2013-01-22 07:54:00
2:54 AM,12.9,-0.9,54,30.43,10.0,NW,8.1,-,N/A,,Clear,310,2013-01-22 08:54:00
3:54 AM,12.9,-2.0,51,30.42,10.0,NW,8.1,-,N/A,,Mostly Cloudy,310,2013-01-22 09:54:00
4:54 AM,12.9,-0.0,56,30.44,10.0,NW,5.8,-,N/A,,Clear,320,2013-01-22 10:54:00
5:54 AM,12.0,-0.9,56,30.45,10.0,NNW,5.8,-,N/A,,Clear,340,2013-01-22 11:54:00
6:54 AM,12.0,-0.0,59,30.45,10.0,NNE,6.9,-,N/A,,Overcast,30,2013-01-22 12:54:00
7:54 AM,12.0,1.0,61,30.46,10.0,NE,4.6,-,N/A,,Overcast,40,2013-01-22 13:54:00
8:54 AM,12.0,1.0,61,30.49,10.0,NNE,3.5,-,N/A,,Overcast,20,2013-01-22 14:54:00
9:54 AM,12.9,1.0,59,30.50,10.0,SW,3.5,-,N/A,,Overcast,220,2013-01-22 15:54:00
10:54 AM,14.0,1.9,59,30.52,10.0,Calm,Calm,-,N/A,,Overcast,0,2013-01-22 16:54:00
11:23 AM,14.0,3.2,62,30.49,1.8,Variable,3.5,-,0.00,Snow,Light Snow,0,2013-01-22 17:23:00
11:30 AM,14.0,6.8,73,30.49,1.2,West,5.8,-,0.00,Snow,Light Snow,280,2013-01-22 17:30:00
11:43 AM,14.0,6.8,73,30.48,0.8,West,5.8,-,0.00,Snow,Light Snow,260,2013-01-22 17:43:00
11:50 AM,14.0,8.6,79,30.48,1.0,West,5.8,-,0.00,Snow,Light Snow,260,2013-01-22 17:50:00
11:54 AM,14.0,8.1,77,30.50,1.0,West,5.8,-,0.00,Snow,Light Snow,280,2013-01-22 17:54:00
12:51 PM,15.8,8.6,73,30.44,2.5,West,4.6,-,0.00,Snow,Light Snow,260,2013-01-22 18:51:00
12:54 PM,14.0,9.0,80,30.45,4.0,West,3.5,-,0.00,Snow,Light Snow,270,2013-01-22 18:54:00
1:07 PM,14.0,8.6,79,30.42,4.0,Calm,Calm,-,0.00,Snow,Light Snow,0,2013-01-22 19:07:00
1:17 PM,15.8,8.6,73,30.43,4.0,WSW,5.8,-,0.00,Snow,Light Snow,250,2013-01-22 19:17:00
1:27 PM,15.8,8.6,73,30.41,5.0,West,3.5,-,0.00,Snow,Light Snow,260,2013-01-22 19:27:00
1:54 PM,15.1,8.1,74,30.43,10.0,Variable,3.5,-,0.00,,Overcast,0,2013-01-22 19:54:00
2:54 PM,16.0,8.1,71,30.44,10.0,West,4.6,-,N/A,,Overcast,260,2013-01-22 20:54:00
3:54 PM,16.0,9.0,74,30.42,10.0,SW,3.5,-,N/A,,Overcast,220,2013-01-22 21:54:00
4:54 PM,16.0,9.0,74,30.42,10.0,Calm,Calm,-,N/A,,Overcast,0,2013-01-22 22:54:00
5:54 PM,16.0,9.0,74,30.41,10.0,Calm,Calm,-,N/A,,Overcast,0,2013-01-22 23:54:00
6:54 PM,17.1,9.0,71,30.41,10.0,Calm,Calm,-,N/A,,Overcast,0,2013-01-23 00:54:00
7:54 PM,17.1,10.0,74,30.40,10.0,NE,3.5,-,N/A,,Overcast,50,2013-01-23 01:54:00
8:54 PM,16.0,10.9,81,30.42,10.0,Calm,Calm,-,N/A,,Overcast,0,2013-01-23 02:54:00
9:54 PM,14.0,9.0,80,30.41,10.0,Calm,Calm,-,N/A,,Mostly Cloudy,0,2013-01-23 03:54:00
10:54 PM,12.9,9.0,84,30.41,10.0,Calm,Calm,-,N/A,,Clear,0,2013-01-23 04:54:00
11:54 PM,10.9,8.1,88,30.41,10.0,Calm,Calm,-,N/A,,Clear,0,2013-01-23 05:54:00